sat.trackr.live / text

‹ back to catalog

SHIYAN-7 (SY-7)

NORAD 39208 · 2013-037A

PAYLOAD ACTIVE UNKNOWN

§ Identity

Operator
Country
PRC
Launch date
2013-07-19
Launch site
TAISC
Launch vehicle
Mass (kg)
RCS (m²)
1.86

External: N2YO · Heavens-Above · Gunter

§ Orbital elements

Epoch: 2026-05-24T23:59:02.066208Z

Period
97.81 min
Inclination
98.0885°
Eccentricity
0.0006987
Mean motion
14.72253530 rev/d
Perigee alt
649.0 km
Apogee alt
658.8 km
Semi-major
7,032.0 km
B*
7.7954e-5
RAAN
148.3560°
Arg perigee
211.9359°
Mean anomaly
148.1425°
Rev number
68,879

§ Raw data

SHIYAN-7 (SY-7)1 39208U 13037A   26144.99932947  .00000442  00000+0  77954-4 0  99902 39208  98.0885 148.3560 0006987 211.9359 148.1425 14.72253530688794

JSON: /api/v1/satellites/39208 · /tle

For live sub-satellite position, see the globe view (requires WebGL).

§ Visibility from observer

Set your observer location to see the next 7 days of passes ≥ 10°. The values pass through the URL so the page stays shareable.

No JS? Fill the form by hand. The geolocation button needs JavaScript.